Showing default

GHGSAT-C13, 64548

Orbit data source: Space-Track

GHGSAT-C13, 64548 is a payload satellite owned by GHG (CA) in SSO that was launched on Mon, 23 Jun 2025 UTC via an FALCON 9 launch vehicle from the Air Force Western Test Range (AFWTR). Payload-class satellites include a variety of spacecraft equipped with specific instruments for various scientific and technological missions. These include communications satellites like Starlink; space stations such as the ISS; scientific satellites like the Hubble; Earth observation satellites from companies like Planet Labs, Umbra, and HawkEye 360; GPS; miniature CubeSats for education and research; and military/defense satellites.

Loading next visibility...
Identifier
64548, 2025-135W
Orbit
SSO
Country
Flag of CACA
Related business
Manufacturer
UTIAS-SFL
Mission
Operational Commercial Earth Obs Sci
Bus & Motor
NEMO-V1, Unknown motor
Mass
15 kg wet, 15 kg dry
Launch date (UTC)
2025-06-23 (10 months ago)
Launch vehicle
FALCON 9
Launch site
Air Force Western Test Range (AFWTR)
Object type
Payload
Rocket body
Debris
Shape & HBR
Box, 1.0 m
Radar Cross Section
0.100 m², Medium (>0.1 m² and < 1m²)

Expand to show TLE details & history
Last TLE update: 5 hours ago

TLE from 5 hours ago
0 GHGSAT-C13
1 64548U 25135W   26120.15616997  .00003530  00000-0  16411-3 0  9995
2 64548  97.4717 235.9103 0000372  80.3974 279.7304 15.20631435 47553
Epoch: 2026-04-30T03:44Z
TLE epoch observation values (Epoch: 2026-04-30T03:44:53.085Z)
Latitude
0.00005°
Longitude
-38.41772°
Altitude
506.981 km
Speed
7.611 km/s
True Right ascension
15h 43m 38s
True Declination
0° 00' 00"
Sunlit
Object was in full shadow at epoch
Visualization orbit readout
Latitude
Unknown
Longitude
Unknown
Altitude
Unknown
Speed
Unknown
Apparent Right ascension
Unknown
Apparent Declination
Unknown
Sunlit
N/A
Visualization observer readout
Local Sidereal Time
16:39:21
Azimuth
Unknown
Elevation
Unknown
Doppler factor
Unknown
Orbital elements
Apogee altitude
501.159 km
Perigee altitude
500.647 km
Semi-major axis
6,879.04 km
Eccentricity
0.00004
Inclination
97.4717°
RAAN
235.9103°
Arg. of periapsis
80.3974°
True anomaly
279.7262°
Mean anomaly
279.7304°
Eccentric anomaly
279.7283°
Mean motion
3.8041 °/min
Orbital period
94.63 mins
BSTAR
0.00016411
Loading maneuver chart data...
Computing Atmospheric mass density...
Loading historical data...
Loading historical data...
Loading historical data...
Loading historical data...
Loading historical data...
Loading historical data...
Loading historical data...

Documentation

Showing up to 5 results
|